Location: Unspecified
(0.0000°N, 0.0000°E)
Time: 18:50:05
(UTC+00:00)

COSMOS 2401 - Pass Details

Date: 04 March 2021
Orbit: 1467 x 1500 km, 82.5° (Epoch: 12 April)

Event Time Altitude Azimuth Distance (km) Brightness Sun altitude
Rises 20:33:48 0° 208° (SSW) 4,578 10.4 -35.3°
Reaches altitude 10° 20:37:12 10° 219° (SW) 3,599 9.9 -36.2°
Maximum altitude 20:44:08 27° 273° (W) 2,501 9.0 -37.9°
Drops below altitude 10° 20:51:07 10° 328° (NNW) 3,604 9.6 -39.6°
Sets 20:54:35 0° 339° (NNW) 4,586 10.1 -40.5°
